TimeEDT,TemperatureF,Dew PointF,Humidity,Sea Level PressureIn,VisibilityMPH,Wind Direction,Wind SpeedMPH,Gust SpeedMPH,PrecipitationIn,Events,Conditions,WindDirDegrees,DateUTC
12:45 AM,48.2,46.4,93,29.73,5.0,SSE,10.4,17.3,0.04,Rain,Light Rain,160,2013-03-12 04:45:00
12:56 AM,48.0,46.9,96,29.73,4.0,SSE,11.5,17.3,0.06,Rain,Light Rain,160,2013-03-12 04:56:00
1:04 AM,48.2,46.4,93,29.73,5.0,South,10.4,17.3,0.00,Rain,Light Rain,170,2013-03-12 05:04:00
1:22 AM,44.6,42.8,93,29.75,3.0,West,15.0,-,0.07,Rain,Rain,260,2013-03-12 05:22:00
1:29 AM,44.6,42.8,93,29.74,4.0,West,16.1,-,0.08,Rain,Light Rain,260,2013-03-12 05:29:00
1:36 AM,44.6,42.8,93,29.74,5.0,WSW,12.7,-,0.09,Rain,Light Rain,250,2013-03-12 05:36:00
1:56 AM,44.1,43.0,96,29.77,5.0,WSW,13.8,21.9,0.12,Rain,Light Rain,240,2013-03-12 05:56:00
2:13 AM,44.6,42.8,93,29.75,7.0,WSW,12.7,-,0.01,Rain,Light Rain,250,2013-03-12 06:13:00
2:56 AM,43.0,42.1,97,29.76,7.0,SSW,5.8,-,0.01,,Overcast,210,2013-03-12 06:56:00
3:03 AM,42.8,42.8,100,29.74,5.0,Variable,4.6,-,0.01,Rain,Light Rain,0,2013-03-12 07:03:00
3:56 AM,42.1,42.1,100,29.75,3.0,SW,8.1,-,0.05,Rain,Light Rain,230,2013-03-12 07:56:00
4:56 AM,39.9,39.0,97,29.78,6.0,West,9.2,-,0.07,Rain,Light Rain,280,2013-03-12 08:56:00
5:45 AM,39.2,37.4,93,29.77,2.5,West,8.1,-,0.02,,Overcast,280,2013-03-12 09:45:00
5:56 AM,39.0,37.9,96,29.79,2.0,West,9.2,-,0.02,,Overcast,280,2013-03-12 09:56:00
6:27 AM,37.4,35.6,93,29.78,4.0,West,6.9,-,0.01,,Overcast,260,2013-03-12 10:27:00
6:34 AM,37.4,35.6,93,29.78,4.0,West,10.4,-,0.01,,Overcast,260,2013-03-12 10:34:00
6:53 AM,37.4,35.6,93,29.79,10.0,WSW,10.4,-,0.01,,Overcast,250,2013-03-12 10:53:00
6:56 AM,37.0,36.0,96,29.81,9.0,WSW,10.4,-,0.01,,Overcast,250,2013-03-12 10:56:00
7:07 AM,37.4,35.6,93,29.78,8.0,West,10.4,-,N/A,,Overcast,260,2013-03-12 11:07:00
7:35 AM,35.6,35.6,100,29.80,6.0,WSW,8.1,-,N/A,,Overcast,240,2013-03-12 11:35:00
7:49 AM,35.6,35.6,100,29.79,1.8,West,6.9,-,N/A,,Overcast,270,2013-03-12 11:49:00
8:23 AM,35.6,35.6,100,29.80,2.5,WSW,10.4,-,N/A,,Overcast,250,2013-03-12 12:23:00
8:30 AM,35.6,35.6,100,29.80,1.8,West,11.5,-,N/A,,Overcast,260,2013-03-12 12:30:00
8:56 AM,36.0,34.0,93,29.83,2.5,West,11.5,-,N/A,,Overcast,260,2013-03-12 12:56:00
9:10 AM,35.6,33.8,93,29.81,3.0,West,13.8,19.6,N/A,,Overcast,280,2013-03-12 13:10:00
9:56 AM,35.1,33.1,92,29.85,2.5,West,10.4,-,N/A,,Overcast,260,2013-03-12 13:56:00
10:11 AM,35.6,33.8,93,29.82,3.0,WSW,11.5,-,N/A,,Overcast,250,2013-03-12 14:11:00
10:20 AM,35.6,33.8,93,29.82,6.0,West,8.1,-,N/A,,Overcast,260,2013-03-12 14:20:00
10:56 AM,36.0,32.0,86,29.84,10.0,WSW,12.7,-,N/A,,Overcast,250,2013-03-12 14:56:00
11:56 AM,37.9,32.0,79,29.83,10.0,WSW,9.2,-,N/A,,Overcast,240,2013-03-12 15:56:00
12:42 PM,37.4,28.4,70,29.81,10.0,West,19.6,23.0,N/A,,Overcast,260,2013-03-12 16:42:00
12:56 PM,37.0,28.9,73,29.84,10.0,West,12.7,23.0,N/A,,Overcast,260,2013-03-12 16:56:00
1:56 PM,37.0,30.0,76,29.84,10.0,West,17.3,24.2,N/A,,Overcast,270,2013-03-12 17:56:00
2:35 PM,35.6,30.2,81,29.81,10.0,West,15.0,21.9,0.00,,Overcast,260,2013-03-12 18:35:00
2:43 PM,35.6,30.2,81,29.81,2.0,West,19.6,24.2,0.00,Snow,Light Snow,260,2013-03-12 18:43:00
2:56 PM,35.1,30.0,82,29.84,8.0,West,12.7,21.9,0.00,,Overcast,270,2013-03-12 18:56:00
3:08 PM,35.6,30.2,81,29.81,10.0,West,15.0,-,N/A,,Overcast,270,2013-03-12 19:08:00
3:23 PM,35.6,30.2,81,29.82,10.0,West,18.4,23.0,N/A,,Overcast,260,2013-03-12 19:23:00
3:56 PM,34.0,28.0,79,29.86,10.0,West,15.0,-,N/A,,Overcast,270,2013-03-12 19:56:00
4:56 PM,34.0,28.0,79,29.88,10.0,West,11.5,-,N/A,,Overcast,280,2013-03-12 20:56:00
5:38 PM,33.8,26.6,75,29.84,10.0,West,13.8,19.6,N/A,,Overcast,260,2013-03-12 21:38:00
5:56 PM,34.0,27.0,75,29.88,10.0,WSW,12.7,-,N/A,,Overcast,250,2013-03-12 21:56:00
6:56 PM,33.1,27.0,78,29.91,10.0,West,12.7,20.7,N/A,,Overcast,260,2013-03-12 22:56:00
7:56 PM,33.1,27.0,78,29.93,10.0,West,9.2,-,N/A,,Overcast,270,2013-03-12 23:56:00
8:43 PM,32.0,28.4,87,29.89,7.0,WSW,8.1,-,N/A,,Overcast,250,2013-03-13 00:43:00
8:56 PM,32.0,28.0,85,29.94,7.0,West,9.2,-,N/A,,Overcast,260,2013-03-13 00:56:00
9:35 PM,32.0,26.6,80,29.90,10.0,WSW,13.8,-,0.00,,Overcast,250,2013-03-13 01:35:00
9:56 PM,32.0,27.0,82,29.94,10.0,WSW,11.5,-,0.00,,Overcast,250,2013-03-13 01:56:00
10:56 PM,32.0,25.0,75,29.95,10.0,West,11.5,-,N/A,,Overcast,270,2013-03-13 02:56:00
11:56 PM,32.0,26.1,79,29.95,8.0,WSW,11.5,-,N/A,,Overcast,250,2013-03-13 03:56:00